Regional Weather Roundup
Issued by NWS Midland/Odessa, TX

Skip options and go directly to product.
Home | Oldest Version | Previous Version | Current Version | All | Text Only | Save Text | Print | Product List | Glossary On

Skip product version selection by date and time.   
825
ASUS44 KMAF 181710
RWRMAF
MIDLAND AREA WEATHER ROUNDUP
NATIONAL WEATHER SERVICE MIDLAND TX
1100 AM CST THU DEC 18 2014

...IN SOUTHWEST TEXAS AND SOUTHEAST NEW MEXICO...

CITY           SKY/WX    TMP DP  RH WIND       PRES   REMARKS
ALPINE         MOSUNNY   56  28  33 NE3       30.23F
ANDREWS        FAIR      55  33  43 NW8       30.15S
ARTESIA        MOSUNNY   46  32  57 CALM      30.15S
BIG SPRING     MOSUNNY   56  35  45 CALM      30.17S
CARLSBAD       MOSUNNY   55  35  47 N9        30.13S
DRYDEN           N/A     54  47  77 SW3       30.15S
FORT STOCKTON  PTSUNNY   59  33  37 W7        30.15S
GUAD PASS      NOT AVBL
HOBBS          SUNNY     54  32  43 W6        30.15R
MARFA          SUNNY     52  30  43 SE6       30.20F
MIDLAND AIRPK  MOSUNNY   58  34  40 W3        30.15S
MIDLAND INTL   MOSUNNY   58  36  43 CALM      30.15R
ODESSA         MOSUNNY   58  34  40 W9        30.16R
PECOS          MOSUNNY   61  34  36 SW15      30.15R
PRESIDIO       FAIR      51  32  48 SE3       30.16F
SEMINOLE       SUNNY     56  31  39 NW6       30.15S
SNYDER         SUNNY     51  37  56 N5        30.14S
WINK           MOSUNNY   57  34  41 NW3       30.14R
$$
...OTHER STATIONS IN TEXAS...

CITY           SKY/WX    TMP DP  RH WIND       PRES   REMARKS
ABILENE        SUNNY     60  40  47 NW7       30.14S
AMARILLO       CLOUDY    34  31  88 N3        30.15R FOG
AUSTIN         FOG       53  52  96 N5        30.15S VSB 1/2
BROWNSVILLE    CLOUDY    76  69  79 S10       30.06F
CORPUS CHRISTI CLOUDY    74  68  81 S9        30.07S
DALLAS FTW     CLOUDY    46  44  93 CALM      30.17R FOG
DEL RIO        CLOUDY    58  52  80 NW9       30.15S
EL PASO        PTSUNNY   46  35  65 S5        30.16R
HOUSTON INT    FOG       60  57  89 NE6       30.12F VSB 1
LUBBOCK        MOSUNNY   48  31  51 NW10G16   30.13R
SAN ANGELO     SUNNY     55  43  63 W5        30.16S
SAN ANTONIO    CLOUDY    63  58  83 VRB3      30.12S
WACO           CLOUDY    49  48  97 CALM      30.16S FOG
WICHITA FALLS  NOT AVBL
$$
...OTHER LOCATIONS IN NEW MEXICO...

CITY           SKY/WX    TMP DP  RH WIND       PRES   REMARKS
ALAMAGORDO     SUNNY     48  34  57 CALM      30.16S
ALBUQUERQUE    PTSUNNY   36  31  82 S5        30.17S WCI  32
CANNON AFB     SUNNY     47  27  46 NW18G25   30.11R WCI  40
CLOVIS         SUNNY     48  28  46 W18       30.11R
HOLLOMAN AFB   SUNNY     49  36  61 S3        30.15R
ROSWELL        MOSUNNY   50  33  52 W3        30.14R
RUIDOSO        MOSUNNY   37  28  70 E6        30.16S WCI  33
SANTA FE       MOSUNNY   32  29  88 SW6       30.14R WCI  26
TRUTH OR CONSE MOSUNNY   47  29  49 NE3       30.14S
TUCUMCARI      CLOUDY    33  32  96 CALM      30.12R FOG
$$

USA.gov is the U.S. government's official web portal to all federal, state and local government web resources and services.